Regional Weather Roundup
Issued by NWS

Home | Current Version | Previous Version | Graphics & Text | Print | Product List | Glossary Off
Versions: 1 2 3 4 5 6 7 8 9 10 11 12 13 14 15 16 17 18 19 20 21 22 23 24 25 26 27 28 29 30 31 32 33 34 35 36 37 38 39 40 41 42 43 44 45 46 47 48 49 50

000
ASUS43 KFSD 201210
RWRSD

WEATHER ROUNDUP FOR SOUTH DAKOTA
NATIONAL WEATHER SERVICE SIOUX FALLS SD
700 AM CDT FRI OCT 20 2017

NOTE: "FAIR" INDICATES FEW OR NO CLOUDS BELOW 12,000 FEET WITH NO
SIGNIFICANT WEATHER AND/OR OBSTRUCTIONS TO VISIBILITY.


SDZ001>005-009-010-012>017-201300-
NORTHWEST AND NORTH CENTRAL SOUTH DAKOTA

CITY           SKY/WX    TMP DP  RH WIND       PRES   REMARKS
BUFFALO          N/A     53  26  35 W6        29.44F
MOBRIDGE       CLEAR     58  48  69 S14       29.51F
$$

SDZ012>016-024>037-041>051-057-063-072>074-201300-
SOUTHWEST AND SOUTH CENTRAL SOUTH DAKOTA

CITY           SKY/WX    TMP DP  RH WIND       PRES   REMARKS
RAPID CTY ARPT CLEAR     49  28  44 E5        29.58F
PIERRE         CLEAR     54  46  74 SE13      29.59F
CUSTER         CLEAR     53  25  33 W6        29.71F
ELLSWORTH AFB  CLEAR     55  27  34 S7        29.56F
PHILIP         CLEAR     59  45  59 CALM      29.57F
PINE RIDGE     CLEAR     54  45  71 S9        29.65F
SPEARFISH      FAIR      70  30  23 SW28G38   29.55F
WINNER         FAIR      60  45  57 S23       29.66F
$$

SDZ004>011-016>023-039-040-201300-
NORTHEAST SOUTH DAKOTA

CITY           SKY/WX    TMP DP  RH WIND       PRES   REMARKS
ABERDEEN       CLEAR     55  48  77 S18       29.63F
WATERTOWN      FAIR      51  48  89 SE8       29.73F
BROOKINGS      FAIR      53  47  79 S13       29.79S
SISSETON         N/A     64  47  53 S15G22    29.66F
$$

SDZ017-020-022-023-036>040-048>070-201300-
SOUTHEAST SOUTH DAKOTA

CITY           SKY/WX    TMP DP  RH WIND       PRES   REMARKS
SIOUX FALLS    FAIR      57  49  74 S16G23    29.82S
HURON          CLEAR     55  47  74 S15       29.70S
CHAMBERLAIN    CLEAR     60  47  62 S12       29.67F
MITCHELL       CLEAR     57  47  69 S14       29.73F
YANKTON        FAIR      59  48  67 S16G22    29.80F
$$

ABBREVIATIONS USED IN REMARKS
   TC - TEMPERATURE IN CELSIUS
  WCI - WIND CHILL INDEX
   HX - HEAT INDEX
  VSB - VISIBILITY




USA.gov is the U.S. government's official web portal to all federal, state and local government web resources and services.